カタログに戻る

NOAA 16 DEB

運用中PO
NORAD 41068·DEBRIS·🇺🇸 United States

打ち上げ Sep 21, 2000 から Vandenberg Space Force Base

Loading…

次のパス (今後24時間)

TLE

最新Source: Space-Track

元期: Sep 14, 2026, 04:16 UTC

1 41068U 00055AB  26257.17805303  .00000980  00000-0  27620-3 0  9995
2 41068  99.1785 243.5909 0138484 223.3071 135.7166 14.42975345564972

AllMySatでNOAA 16 DEBをリアルタイム追跡

Download on the App Store